Address 0x5919247d8a661fa06739cdfb4f7ca38e09f2e3c9 5

Overview

Balance:
1.00832913 BNB
My Name Tag:
Not Available

Txn Hash Method
Block
From
To
Value [Txn Fee]
0x49e5279511c122e228ee32c821db1ce714cea31e553ebd69049f1c4f694581c0Add Liquidity BN...95523882021-06-08 12:14:11100 days 19 hrs ago0x5919247d8a661fa06739cdfb4f7ca38e09f2e3c9OUT0x34dbe8e5faefabf5018c16822e4d86f02d57ec270.00046692 BNB0.000226
0x9591e679fbf15098f284b6112cfb3be922c40a8a9a97d488a5ea99bf34d91d09Approve95523802021-06-08 12:13:47100 days 19 hrs ago0x5919247d8a661fa06739cdfb4f7ca38e09f2e3c9OUT 0x6ce8da28e2f864420840cf74474eff5fd80e65b80 BNB0.00044487
0xd8236274dbde222fd5d6918c7daf91802ea640e34f4c54b01780ccb280e20ad4Transfer95422282021-06-08 3:46:11101 days 3 hrs ago0xaa25aa7a19f9c426e07dee59b12f944f4d9f1dd3 IN 0x5919247d8a661fa06739cdfb4f7ca38e09f2e3c91 BNB0.000378
0xf1ad529ecd1fed221224d965c20b20bf43ca7b1682fb8558670222928238eec6Add Liquidity ET...95131862021-06-07 3:33:39102 days 3 hrs ago0x5919247d8a661fa06739cdfb4f7ca38e09f2e3c9OUT0x10ed43c718714eb63d5aa57b78b54704e256024e0.00008 BNB0.00022648
0x4829add7511bcf444eb164a174dddd7892e126bf36b75e235e702d7029532475Add Liquidity ET...95130252021-06-07 3:25:36102 days 4 hrs ago0x5919247d8a661fa06739cdfb4f7ca38e09f2e3c9OUT0x10ed43c718714eb63d5aa57b78b54704e256024e0.99932828 BNB0.0002266
0x557f3b100117c8cf26e540d15e25be9670b8381d2914024a035e88a3e8b33b5fTransfer95129312021-06-07 3:20:54102 days 4 hrs ago0xaa25aa7a19f9c426e07dee59b12f944f4d9f1dd3 IN 0x5919247d8a661fa06739cdfb4f7ca38e09f2e3c91 BNB0.000378
0x634eec137f310eedc5598af948055a1d5917d40d49320ab86c1bfcb4e7a3a9a2Add Liquidity ET...92568422021-05-29 5:02:17111 days 2 hrs ago0x5919247d8a661fa06739cdfb4f7ca38e09f2e3c9OUT0x10ed43c718714eb63d5aa57b78b54704e256024e16.000176534247297 BNB0.00022696
0x6aa1e210bc6e6f5e1fec97ac2819ec6afb6cdb14363119bc8a633fb5f370fb1cApprove92568272021-05-29 5:01:32111 days 2 hrs ago0x5919247d8a661fa06739cdfb4f7ca38e09f2e3c9OUT 0xab286cda6a22b6dceb5d6f49b00ae4d7626c27280 BNB0.00044476
0xac923ed6bb38d8755e03977d4274727d35feec8fdbe6b2dfb0ac57f532dcec8bTransfer92037882021-05-27 8:49:34112 days 22 hrs ago0x2ce1d0ffd7e869d9df33e28552b12ddded326706 IN 0x5919247d8a661fa06739cdfb4f7ca38e09f2e3c95 BNB0.000315
0x35bdcfa3a6097aab42ce7728acc75d7ee200020c79783c2ce1d2c67f5ac5e618Transfer92000242021-05-27 5:41:22113 days 1 hr ago0x2ce1d0ffd7e869d9df33e28552b12ddded326706 IN 0x5919247d8a661fa06739cdfb4f7ca38e09f2e3c95 BNB0.000315
0x2d0dd4348039e4e2074a42963977ed2694584f36daa2ee619b684b665f9b6a29Transfer91984272021-05-27 4:21:31113 days 3 hrs ago0x2ce1d0ffd7e869d9df33e28552b12ddded326706 IN 0x5919247d8a661fa06739cdfb4f7ca38e09f2e3c95 BNB0.000315
0xf7f27a0f015c8b5f5b56edcbe92fc529af5576f9abfb0eed292dbeeefbd06ffaSwap Exact Token...91702712021-05-26 4:53:43114 days 2 hrs ago0x5919247d8a661fa06739cdfb4f7ca38e09f2e3c9OUT 0xcde540d7eafe93ac5fe6233bee57e1270d3e330f0 BNB0.00113002
0x8ac636de2e1b562f47324599333def99875645798da02cfe159667979619c04aApprove91702622021-05-26 4:53:16114 days 2 hrs ago0x5919247d8a661fa06739cdfb4f7ca38e09f2e3c9OUT 0xe82ec65d01e3866c906b608234dd6873c7bbcf730 BNB0.00044382
0xaa0fcc590be6041f28a428b1ab632f3bfe328b6a9af9d1e98680b04a60d42836Swap Exact Token...91702452021-05-26 4:52:25114 days 2 hrs ago0x5919247d8a661fa06739cdfb4f7ca38e09f2e3c9OUT 0xcde540d7eafe93ac5fe6233bee57e1270d3e330f0 BNB0.00112143
0x98963bf03279e76553c80ee8dabfbe2decdef49e2373b42f4cabd1164b4dcc5dAdd Liquidity ET...91701292021-05-26 4:46:37114 days 2 hrs ago0x5919247d8a661fa06739cdfb4f7ca38e09f2e3c9OUT0x10ed43c718714eb63d5aa57b78b54704e256024e10.75974499 BNB0.00022672
0xb05716ca2481ea28e8c1b9468c2cec242697fa37194653b07c4cabd038b5b250Add Liquidity ET...91700972021-05-26 4:45:01114 days 2 hrs ago0x5919247d8a661fa06739cdfb4f7ca38e09f2e3c9OUT0x10ed43c718714eb63d5aa57b78b54704e256024e10 BNB0.00022648
0xc6e31b401795bc5bfbeaa82350c726d772ad1c7a7304e7af033961ebe9094d50Transfer91700692021-05-26 4:43:37114 days 2 hrs ago0x2ce1d0ffd7e869d9df33e28552b12ddded326706 IN 0x5919247d8a661fa06739cdfb4f7ca38e09f2e3c95 BNB0.000315
0xf8e7464e546f88fea7b0b58ab78ed2868b94bbfa9f880e5c68e8c4b975cfa4a6Swap Exact BNB F...91689702021-05-26 3:48:40114 days 3 hrs ago0x5919247d8a661fa06739cdfb4f7ca38e09f2e3c9OUT 0xcde540d7eafe93ac5fe6233bee57e1270d3e330f0.01 BNB0.00124844
0x96e3144557ed764df36b16e7687429b88986ca69b9b82755daa53f5f2d8adb30Approve91689162021-05-26 3:45:58114 days 3 hrs ago0x5919247d8a661fa06739cdfb4f7ca38e09f2e3c9OUT 0xf1785c979e822134b6d5a9b23bd75126388b23df0 BNB0.00044331
0x3a862adb27a3bea03949e6825d52a2fc3ae09966b9f5e9f9c1fb58a07dff10cfApprove91688522021-05-26 3:42:46114 days 3 hrs ago0x5919247d8a661fa06739cdfb4f7ca38e09f2e3c9OUT 0x13373df023f90d0bae4cf7bcbff798f87fa45a440 BNB0.0004437
0xcbded9cc4d2df9dd2b8c9d5187730e0ab7769c538cdda9999546d479b3274eb9Withdraw91688392021-05-26 3:42:07114 days 3 hrs ago0x5919247d8a661fa06739cdfb4f7ca38e09f2e3c9OUT 0x20ec291bb8459b6145317e7126532ce7ece5056f0 BNB0.00056158
0xd0f9c5b2ba00a226db6de6e4542be33e603beb3dabd12e312a2ef690a3d98fc2Deposit91688232021-05-26 3:41:19114 days 3 hrs ago0x5919247d8a661fa06739cdfb4f7ca38e09f2e3c9OUT 0x20ec291bb8459b6145317e7126532ce7ece5056f0 BNB0.00059855
0xae6a6cdaee7979a1074071cd0c536a48f1f81c748198bc83b24c619bb2213cd3Approve91688132021-05-26 3:40:49114 days 3 hrs ago0x5919247d8a661fa06739cdfb4f7ca38e09f2e3c9OUT 0xe02df9e3e622debdd69fb838bb799e3f168902c50 BNB0.00044382
0x562821a03ee7ad772a84ad497471649f570946d370f0ef196316515d2a707b92Swap Exact BNB F...91687642021-05-26 3:38:22114 days 3 hrs ago0x5919247d8a661fa06739cdfb4f7ca38e09f2e3c9OUT 0xcde540d7eafe93ac5fe6233bee57e1270d3e330f1 BNB0.00124146
0xdd52ee91019963e6cd7eb472904942553df4788007f2b9d2b54836317b7e1144Swap Exact Token...91687362021-05-26 3:36:58114 days 3 hrs ago0x5919247d8a661fa06739cdfb4f7ca38e09f2e3c9OUT 0xcde540d7eafe93ac5fe6233bee57e1270d3e330f0 BNB0.00155296
[ Download CSV Export 
Latest 3 internal transactions
Parent Txn Hash Block From To Value
0xf7f27a0f015c8b5f5b56edcbe92fc529af5576f9abfb0eed292dbeeefbd06ffa91702712021-05-26 4:53:43114 days 2 hrs ago 0xcde540d7eafe93ac5fe6233bee57e1270d3e330f0x5919247d8a661fa06739cdfb4f7ca38e09f2e3c90.009942470190334132 BNB
0xaa0fcc590be6041f28a428b1ab632f3bfe328b6a9af9d1e98680b04a60d4283691702452021-05-26 4:52:25114 days 2 hrs ago 0xcde540d7eafe93ac5fe6233bee57e1270d3e330f0x5919247d8a661fa06739cdfb4f7ca38e09f2e3c90.993156054056963696 BNB
0xdc76168b81bb47974dd190e5382a5456a29906d00422a123a682f866a084acc091686762021-05-26 3:33:58114 days 3 hrs ago 0xcde540d7eafe93ac5fe6233bee57e1270d3e330f0x5919247d8a661fa06739cdfb4f7ca38e09f2e3c91 wei
[ Download CSV Export 
Loading

Contract Name:
0 BNB

Compiler Version
0

Optimization Enabled:
0 BNB

Other Settings:
-NA-
Block Transaction Gas Used Reward
Age Block Fee Address BC Fee Address Voting Power Jailed Incoming
Block Uncle Number Difficulty Gas Used Reward
Loading